Home   Weather   Greifswald   Past weeks

Flag for Germany Past Weather in Greifswald, Mecklenburg-Western Pomerania, Germany — Yesterday and Last 2 Weeks

Now
47 °F

Low clouds.


Feels Like: 43 °F
Forecast: 44 / 47 °F
Wind: 8 mph from West

Location: Trollenhagen

Current Time: Dec 10, 2016 at 5:44:56 pm

Latest Report: Dec 10, 2016 at 5:00 pm


Visibility: N/A

Pressure: 30.04 "Hg

Humidity: 96%

Dew Point: 46 °F

Location of GreifswaldLocation

Past Weather in Greifswald — Graph

°F

Greifswald Temperature Yesterday

Maximum temperature yesterday: 49 °F (at 2:00 pm)
Minimum temperature yesterday: 44 °F (at 2:00 am)
Average temperature yesterday: 46 °F

High & Low Weather Summary for the Past Weeks

 TemperatureHumidityPressure
High50 °F (Dec 10, 6:00 am)100% (Nov 25, 3:00 pm)30.56 "Hg (Nov 25, 3:00 pm)
Low24 °F (Nov 29, 3:00 am)61% (Nov 27, 2:00 pm)29.69 "Hg (Dec 1, 11:00 pm)
Average37 °F87%30.20 "Hg
* Reported Nov 25 3:00 pm — Dec 10 3:00 pm, Greifswald, Weather by CustomWeather, © 2016

Note: Actual official high and low records may vary slightly from our data, if they occured in-between our weather recording intervals... More about our weather records

Advertising

Greifswald Weather History for the Previous 24 Hours

Scroll right to see more
 ConditionsComfort  
Time TempWeatherWind HumidityBarometerVisibility
3:00 pm
Sat, Dec 10
48 °FLow clouds.8 mph94%30.03 "HgN/A
2:00 pm48 °FLow clouds.8 mph93%30.02 "HgN/A
12:00 pm48 °FLow clouds.8 mph94%30.02 "HgN/A
11:00 am49 °FOvercast.8 mph92%30.03 "HgN/A
9:00 am50 °FOvercast.9 mph88%30.02 "HgN/A
8:00 am50 °FOvercast.9 mph89%30.02 "HgN/A
6:00 am50 °FLow clouds.9 mph96%30.02 "HgN/A
5:00 am49 °FLow clouds.8 mph96%30.04 "HgN/A
3:00 am49 °FLow clouds.7 mph98%30.07 "HgN/A
2:00 am48 °FLow clouds.7 mph99%30.08 "HgN/A
12:00 am48 °FLow clouds.6 mph97%30.13 "HgN/A
11:00 pm
Fri, Dec 9
48 °FLow clouds.8 mph97%30.14 "HgN/A
9:00 pm48 °FOvercast.6 mph91%30.17 "HgN/A
8:00 pm48 °FOvercast.6 mph89%30.18 "HgN/A
6:00 pm47 °FOvercast.10 mph86%30.20 "HgN/A
5:00 pm47 °FOvercast.7 mph87%30.19 "HgN/A
Weather by CustomWeather, © 2016

See weather overviewHow to use our weather pages